Regional Weather Roundup
Issued by NWS Sioux Falls, SD

Home | Current Version | Previous Version | Text Only | Print | Product List | Glossary On
Versions: 1 2 3 4 5 6 7 8 9 10 11 12 13 14 15 16 17 18 19 20 21 22 23 24 25 26 27 28 29 30 31 32 33 34 35 36 37 38 39 40 41 42 43 44 45 46 47 48 49 50
452
ASUS43 KFSD 042302
RWRFSD

WEATHER ROUNDUP FOR SE SOUTH DAKOTA/SW MINNESOTA/NW IOWA
NATIONAL WEATHER SERVICE SIOUX FALLS SD
600 PM CDT WED MAY 04 2016

NOTE: "FAIR" INDICATES FEW OR NO CLOUDS BELOW 12,000 FEET WITH NO
SIGNIFICANT WEATHER AND OR OBSTRUCTIONS TO VISIBILITY.


SDZ038>040-050-052>070-050000-
SOUTHEAST SOUTH DAKOTA

CITY           SKY/WX    TMP DP  RH WIND       PRES   REMARKS
BROOKINGS      SUNNY     67  32  27 N12       30.00F
CHAMBERLAIN    NOT AVBL
HURON          SUNNY     71  34  25 NW10      30.02F
MADISON        FAIR      68  28  22 N15       30.02S
MITCHELL       SUNNY     70  34  26 NW10      30.04F
SIOUX FALLS    SUNNY     68  33  27 NW15      30.00S
WINNER         FAIR      74  39  28 NW8       30.06F
YANKTON        SUNNY     66  36  32 NW10      30.02F
$$

MNZ071-072-080-081-089-090-097-098-050000-
SOUTHWEST MINNESOTA

CITY           SKY/WX    TMP DP  RH WIND       PRES   REMARKS
FAIRMONT       SUNNY     68  30  24 N22       29.94S
JACKSON        SUNNY     66  25  20 N12G25    29.98S
LUVERNE        SUNNY     68  27  21 N10G20    30.00S
MARSHALL       SUNNY     69  30  23 N18       29.98S
MONTEVIDEO     SUNNY     72  30  21 N18       29.99S
PIPESTONE      SUNNY     68  18  14 N13       30.00S
REDWOOD FALLS  SUNNY     70  24  17 N10       29.96S
TRACY          SUNNY     69  30  23 N16G23    29.99S
WINDOM         SUNNY     66  28  24 NW17      29.97S
WORTHINGTON    SUNNY     66  34  30 N17       29.99F
$$

IAZ001>003-012>014-020>022-031-032-NEZ013-014-SDZ071-050000-
NORTHWEST IOWA

CITY           SKY/WX    TMP DP  RH WIND       PRES   REMARKS
DENISON        SUNNY     66  36  32 N16       29.97F
ESTHERVILLE    SUNNY     66  33  29 N14G26    29.96F
SIOUX CITY     SUNNY     68  42  38 NW13      30.01S
SPENCER        SUNNY     67  33  28 NW22G29   29.98F
STORM LAKE     SUNNY     66  34  30 N20G26    29.98F
$$

ABBREVIATIONS USED IN REMARKS
   TC - TEMPERATURE IN CELSIUS
  WCI - WIND CHILL INDEX
   HX - HEAT INDEX
  VSB - VISIBILITY





USA.gov is the U.S. government's official web portal to all federal, state and local government web resources and services.